This is the latest recevied weather packets stored in our database for station/object M0IQF-13. If no packets are shown the sender has not sent any weather packets the latest 10 day(s).
| Time | Temp. | Humidity | Pressure | Rain* | Wind** | Luminosity | Snow |
|---|---|---|---|---|---|---|---|
| 1777493692 | 17.22° C | 36% | 1023.5 hPa | - | - | - | - |
| 1777492785 | 16.67° C | 36% | 1023.4 hPa | - | - | - | - |
| 1777491878 | 17.22° C | 34% | 1023.1 hPa | - | - | - | - |
| 1777490971 | 17.22° C | 34% | 1023 hPa | - | - | - | - |
| 1777490064 | 18.33° C | 32% | 1022.9 hPa | - | - | - | - |
| 1777489157 | 17.78° C | 32% | 1022.8 hPa | - | - | - | - |
| 1777488250 | 18.89° C | 30% | 1022.6 hPa | - | - | - | - |
| 1777487343 | 19.44° C | 30% | 1022.5 hPa | - | - | - | - |
| 1777486436 | 19.44° C | 30% | 1022.6 hPa | - | - | - | - |
| 1777485529 | 18.89° C | 28% | 1022.6 hPa | - | - | - | - |
| 1777484622 | 20.56° C | 26% | 1022.5 hPa | - | - | - | - |
| 1777483715 | 20° C | 26% | 1022.7 hPa | - | - | - | - |
| 1777482808 | 19.44° C | 27% | 1022.8 hPa | - | - | - | - |
| 1777481901 | 20° C | 26% | 1023 hPa | - | - | - | - |
| 1777480994 | 20° C | 25% | 1022.9 hPa | - | - | - | - |
| 1777480087 | 21.67° C | 23% | 1022.7 hPa | - | - | - | - |
| 1777479180 | 21.11° C | 23% | 1023 hPa | - | - | - | - |
| 1777478272 | 21.67° C | 22% | 1023 hPa | - | - | - | - |
| 1777477365 | 23.33° C | 21% | 1023.1 hPa | - | - | - | - |
| 1777476458 | 22.78° C | 20% | 1023.1 hPa | - | - | - | - |
| 1777475551 | 22.78° C | 19% | 1023.3 hPa | - | - | - | - |
| 1777474644 | 22.78° C | 19% | 1023.3 hPa | - | - | - | - |
| 1777473737 | 22.78° C | 19% | 1023.4 hPa | - | - | - | - |
| 1777472830 | 23.33° C | 20% | 1023.4 hPa | - | - | - | - |
| 1777471923 | 23.33° C | 20% | 1023.4 hPa | - | - | - | - |
* Rain since midnight (hover to see other rain measurements)
** Current wind speed in m/s (hover to see current wind gust speed)